{"data":{"norad_id":68467,"intl_designator":"2026-067BD","name":"TRANSPORTER-16 OBJECT BD","alt_names":[],"object_type":"PAYLOAD","status":"ACTIVE","operator":null,"country":"TBD","launch_date":"2026-03-30","launch_site_code":"AFWTR","launch_vehicle":null,"mission":null,"orbit_class":"UNKNOWN","rcs_meters":null,"size_class":null,"mass_kg":null,"dimensions":null,"purposes":[],"wikipedia_slug":null,"has_3d_model":false,"image_url":null,"decayed_at":null,"tle_current":{"epoch":"2026-09-19T03:14:22.837056Z","epoch_age_seconds":186873,"freshness":"STALE","line1":"1 68467U 26067BD  26262.13498654  .00013062  00000+0  57867-3 0  9997","line2":"2 68467  97.4500 219.2663 0008391 102.6699 257.5475 15.21728133 26210","mean_motion":15.21728133,"eccentricity":0.0008391,"inclination_deg":97.45,"raan_deg":219.2663,"arg_perigee_deg":102.6699,"mean_anomaly_deg":257.5475,"bstar":0.00057867,"rev_number":2621,"period_min":94.629255303385,"perigee_km":494.8558487182,"apogee_km":506.39979183959,"semimajor_km":6878.7648202789,"source":"CELESTRAK","updated_at":"2026-09-20T09:00:24.239729Z"}}}